EW9479 Weather Reports


Display with metric or nautical units.
time (UTC)temp
F
wind
direction
speed
MPH
gust
MPH
rain 1hr
in
rain 24hr
in
rain mn
in
humidity
%
barometer
mb
20260510043044 57 0 0.0 0.0 0.00 0.00 0.00 86 1014.3
20260510041542 57 37 0.0 1.0 0.00 0.00 0.00 86 1014.2
20260510040045 58 0 0.0 1.0 0.00 0.00 0.00 84 1014.4
20260510034549 58 0 0.0 1.0 0.00 0.00 0.00 83 1014.4
20260510033040 59 37 1.0 1.0 0.00 0.00 0.00 80 1014.4
20260510031544 59 0 0.0 0.0 0.00 0.00 0.00 80 1014.5
20260510030042 60 0 0.0 1.0 0.00 0.00 0.00 79 1014.5
20260510024542 61 0 0.0 0.0 0.00 0.00 0.00 78 1014.3
20260510023038 61 0 0.0 0.0 0.00 0.00 0.00 78 1014.2
20260510021552 62 0 0.0 0.0 0.00 0.00 0.00 75 1013.9
20260510020044 63 0 0.0 0.0 0.00 0.00 0.00 74 1013.6
20260510014551 64 0 0.0 0.0 0.00 0.00 0.00 70 1013.4
20260510013043 65 0 0.0 0.0 0.00 0.00 0.00 70 1013.0
20260510011541 67 0 0.0 0.0 0.00 0.00 0.00 65 1012.9
20260510010047 69 0 0.0 0.0 0.00 0.00 0.00 63 1012.7
20260510004547 72 0 0.0 0.0 0.00 0.00 0.00 60 1012.5
20260510003104 75 0 0.0 0.0 0.00 0.00 0.00 56 1012.2
20260510001543 78 0 0.0 0.0 0.00 0.00 0.00 53 1012.1
20260510000046 80 0 0.0 1.0 0.00 0.00 0.00 54 1012.0
20260509234541 80 0 0.0 2.0 0.00 0.00 0.00 48 1011.9
20260509233038 80 61 0.0 2.0 0.00 0.00 0.00 41 1011.8
20260509231545 80 60 1.0 4.0 0.00 0.00 0.00 39 1011.8
20260509230038 80 0 1.0 4.0 0.00 0.00 0.00 45 1011.6
20260509224542 81 59 3.0 5.0 0.00 0.00 0.00 42 1011.5
20260509223045 81 57 1.0 3.0 0.00 0.00 0.00 43 1011.5
20260509221543 81 29 1.0 4.0 0.00 0.00 0.00 39 1011.7
20260509220043 81 281 2.0 5.0 0.00 0.00 0.00 40 1011.8
20260509214550 81 292 3.0 5.0 0.00 0.00 0.00 39 1011.7
20260509213045 81 307 2.0 5.0 0.00 0.00 0.00 43 1011.8
20260509211547 81 350 1.0 5.0 0.00 0.00 0.00 43 1011.9
20260509210048 81 219 2.0 6.0 0.00 0.00 0.00 43 1011.9
20260509204542 81 311 2.0 4.0 0.00 0.00 0.00 42 1011.8
20260509203043 81 44 1.0 4.0 0.00 0.00 0.00 43 1012.0
20260509201538 81 47 2.0 5.0 0.00 0.00 0.00 40 1011.9
20260509200049 80 11 2.0 7.0 0.00 0.00 0.00 46 1012.0
20260509194550 81 226 1.0 5.0 0.00 0.00 0.00 47 1012.1
20260509193043 81 313 1.0 3.0 0.00 0.00 0.00 47 1012.2
20260509191544 79 91 1.0 6.0 0.00 0.00 0.00 48 1012.3
20260509190037 80 1 2.0 6.0 0.00 0.00 0.00 50 1012.2
20260509184545 78 298 2.0 5.0 0.00 0.00 0.00 53 1012.4
20260509183058 78 283 3.0 7.0 0.00 0.00 0.00 52 1012.4
20260509181541 79 65 1.0 5.0 0.00 0.00 0.00 54 1012.6
20260509180041 78 20 3.0 6.0 0.00 0.00 0.00 58 1012.6
20260509174547 77 304 2.0 5.0 0.00 0.00 0.00 57 1012.8
20260509173046 76 213 2.0 6.0 0.00 0.00 0.00 57 1012.9
20260509171543 76 300 3.0 7.0 0.00 0.00 0.00 58 1012.8
20260509170043 75 73 1.0 5.0 0.00 0.00 0.00 61 1012.9
20260509164541 75 278 1.0 5.0 0.00 0.00 0.00 61 1012.9
20260509163047 74 317 2.0 7.0 0.00 0.00 0.00 64 1013.0
20260509161544 73 314 1.0 5.0 0.00 0.00 0.00 65 1012.8
20260509160046 73 221 2.0 6.0 0.00 0.00 0.00 65 1012.5
20260509154542 71 316 4.0 7.0 0.00 0.00 0.00 67 1012.6
20260509153051 71 30 3.0 8.0 0.00 0.00 0.00 68 1012.5
20260509151543 71 277 5.0 9.0 0.00 0.00 0.00 68 1012.4
20260509150042 70 293 3.0 9.0 0.00 0.00 0.00 69 1012.6
20260509144537 70 282 3.0 9.0 0.00 0.00 0.00 72 1012.7
20260509143054 69 290 4.0 8.0 0.00 0.00 0.00 73 1012.6
20260509141542 68 285 5.0 10.0 0.00 0.00 0.00 74 1012.5
20260509140056 67 281 4.0 8.0 0.00 0.00 0.00 75 1012.3
20260509134541 67 275 3.0 6.0 0.00 0.00 0.00 77 1012.2
20260509133038 66 236 2.0 7.0 0.00 0.00 0.00 78 1012.1
20260509131537 64 284 3.0 6.0 0.00 0.00 0.00 80 1012.0
20260509130043 63 225 3.0 6.0 0.00 0.00 0.00 84 1012.0
20260509124544 61 204 4.0 8.0 0.00 0.00 0.00 86 1012.0
20260509123049 60 186 4.0 7.0 0.00 0.00 0.00 88 1012.0
20260509121539 58 192 3.0 6.0 0.00 0.00 0.00 90 1011.9
20260509120039 57 210 4.0 6.0 0.00 0.00 0.00 90 1011.7
20260509114544 57 193 4.0 7.0 0.00 0.00 0.00 90 1011.6
20260509113044 56 200 4.0 8.0 0.00 0.00 0.00 90 1011.5
20260509111542 55 180 5.0 9.0 0.00 0.00 0.00 91 1011.4
20260509110041 55 189 5.0 7.0 0.00 0.00 0.00 91 1011.2
20260509104540 54 204 2.0 4.0 0.00 0.00 0.00 91 1011.0
20260509103046 54 190 2.0 4.0 0.00 0.00 0.00 90 1010.8
20260509101538 54 192 2.0 3.0 0.00 0.00 0.00 91 1011.1
20260509100050 54 0 1.0 4.0 0.00 0.00 0.00 91 1011.2
20260509094545 54 217 1.0 3.0 0.00 0.00 0.00 91 1011.3
20260509093043 53 0 0.0 1.0 0.00 0.00 0.00 91 1011.1
20260509091540 53 0 0.0 0.0 0.00 0.00 0.00 90 1011.0
20260509090053 53 0 0.0 1.0 0.00 0.00 0.00 89 1011.3
20260509084545 54 0 0.0 1.0 0.00 0.00 0.00 88 1011.3
20260509083046 54 0 0.0 1.0 0.00 0.00 0.00 88 1011.1
20260509081542 55 223 1.0 2.0 0.00 0.00 0.00 88 1011.0
20260509080042 55 0 0.0 4.0 0.00 0.00 0.00 87 1010.6
20260509074544 55 0 0.0 2.0 0.00 0.00 0.00 86 1011.0
20260509073043 56 203 3.0 4.0 0.00 0.00 0.00 85 1011.1
20260509071538 56 214 2.0 4.0 0.00 0.00 0.00 85 1011.1
20260509070043 57 222 1.0 3.0 0.00 0.00 0.00 85 1010.9
20260509064540 56 0 0.0 3.0 0.00 0.00 0.00 84 1011.2
20260509063044 56 158 0.0 3.0 0.00 0.00 0.00 84 1011.5
20260509061552 56 184 2.0 6.0 0.00 0.00 0.00 83 1011.8
20260509060101 57 189 2.0 4.0 0.00 0.00 0.00 83 1012.0
20260509054601 57 207 2.0 5.0 0.00 0.00 0.00 82 1012.2
20260509053041 57 188 0.0 4.0 0.00 0.00 0.00 82 1012.2
20260509051545 57 177 2.0 3.0 0.00 0.00 0.00 81 1012.7
20260509050048 58 197 3.0 6.0 0.00 0.00 0.00 80 1012.5
20260509044537 58 199 2.0 4.0 0.00 0.00 0.00 80 1012.7